Location: Bakov nad Jizerou
(50.4784°N, 14.9394°E)
Time: 09:02:47
(UTC+00:00)

SPOT 5 - Pass Details

Date: 16 June 2021
Orbit: 623 x 815 km, 98.2° (Epoch: 04 August)

Event Time Altitude Azimuth Distance (km) Brightness Sun altitude
Exits shadow 20:53:10 10° 180° (S) 2,333 5.0 -10.9°
Maximum altitude 20:58:15 57° 259° (W) 897 3.5 -11.3°
Drops below altitude 10° 21:03:07 10° 338° (NNW) 2,241 7.0 -11.7°
Sets 21:05:23 0° 343° (NNW) 3,136 8.1 -11.8°
